Vineland Station Rcs, Ontario

11:36 PM EST on February 21, 2017 (GMT -0500)
Vineland (AU8)

Weather History for CXVN - March, 2013

Change the Weather History Date:

Saturday, March 30, 2013

  Actual Average (CYSN) Record (CYSN)
Temperature  
Mean Temperature 40 °F -  
Max Temperature 53 °F 44 °F 77 °F (1998)
Min Temperature 27 °F 32 °F 23 °F (2008)
Degree Days  
Heating Degree Days 25    
Moisture  
Dew Point 25 °F    
Average Humidity 57    
Maximum Humidity 89    
Minimum Humidity 26    
Precipitation  
Precipitation 0.00 in - - ()
Sea Level Pressure  
Sea Level Pressure 30.13 in    
Wind  
Wind Speed 4 mph ()    
Max Wind Speed 13 mph    
Max Gust Speed -    
Averages and records for this station are not official NWS values.
T = Trace of Precipitation, MM = Missing Value Source: Averaged Metar Reports

Daily Weather History Graph

Daily Weather History Graph

Search for Another Location

Airport or City:

Trip Planner

Search our weather history database for the weather conditions in past years. The results will help you decide how hot, cold, wet, or windy it might be!

Date:

Astronomy

Mar. 30, 2013 Rise Set
Actual Time 7:02 AM EDT 7:41 PM EDT
Civil Twilight 6:34 AM EDT 8:10 PM EDT
Nautical Twilight 6:00 AM EDT 8:44 PM EDT
Astronomical Twilight 5:24 AM EDT 9:19 PM EDT
Moon 11:53 PM EDT (3/30) 8:50 AM EDT (3/30)
Length of Visible Light 13h 36m
Length of Day
12h 39m
Waning Gibbous, 86% of the Moon is Illuminated
Mar 30
Waning Gibbous
Apr 3
Last Quarter
Apr 10
New
Apr 18
First Quarter
Apr 25
Full

Hourly Weather History & Observations

Time (EDT) Temp. Windchill Dew Point Humidity Pressure Visibility Wind Dir Wind Speed Gust Speed Precip Events Conditions
12:00 AM 36.3 °F 33.7 °F 25.3 °F 64% 30.17 in - WSW 3.5 mph - N/A   Unknown
1:00 AM 33.1 °F - 25.2 °F 73% 30.17 in - WSW 2.3 mph - N/A   Unknown
2:00 AM 34 °F - 28 °F 69% 30.17 in - WSW 3.5 mph - -  
2:00 AM 34.3 °F 31.4 °F 27.5 °F 76% 30.17 in - WSW 3.5 mph - N/A   Unknown
3:00 AM 33.6 °F 30.6 °F 27.9 °F 79% 30.17 in - West 3.5 mph - N/A   Unknown
4:00 AM 31.8 °F 28.5 °F 27.5 °F 84% 30.17 in - WSW 3.5 mph - N/A   Unknown
5:00 AM 31.1 °F - 27.0 °F 85% 30.17 in - West 2.3 mph - N/A   Unknown
6:00 AM 29.1 °F 25.4 °F 25.7 °F 87% 30.18 in - SW 3.5 mph - N/A   Unknown
7:00 AM 28.2 °F 23.1 °F 25.3 °F 89% 30.19 in - SSW 4.6 mph - N/A   Unknown
8:00 AM 31 °F - 27 °F 79% 30.20 in - SSW 4.6 mph - -  
8:00 AM 30.6 °F 25.8 °F 27.0 °F 86% 30.20 in - SSW 4.6 mph - N/A   Unknown
9:00 AM 38.5 °F 36.1 °F 30.9 °F 74% 30.20 in - WSW 3.5 mph - N/A   Unknown
10:00 AM 41.7 °F 39.8 °F 32.0 °F 68% 30.20 in - NE 3.5 mph - N/A   Unknown
11:00 AM 45.5 °F 44.2 °F 31.1 °F 57% 30.19 in - NE 3.5 mph - N/A   Unknown
12:00 PM 43.9 °F 41.3 °F 25.2 °F 48% 30.17 in - NE 4.6 mph - N/A   Unknown
1:00 PM 45.3 °F 42.3 °F 23.2 °F 42% 30.15 in - ENE 5.8 mph - N/A   Unknown
2:00 PM 46 °F - 22 °F 26% 30.13 in - East 4.6 mph - -  
2:00 PM 45.7 °F 43.4 °F 22.5 °F 40% 30.13 in - East 4.6 mph - N/A   Unknown
3:00 PM 50.2 °F - 27.5 °F 42% 30.11 in - ENE 3.5 mph - N/A   Unknown
4:00 PM 51.4 °F - 22.8 °F 33% 30.08 in - WSW 10.4 mph - N/A   Unknown
5:00 PM 51.6 °F - 22.5 °F 32% 30.08 in - SW 12.7 mph - N/A   Unknown
6:00 PM 50.4 °F - 21.0 °F 32% 30.06 in - SW 10.4 mph - N/A   Unknown
7:00 PM 49.8 °F - 21.0 °F 32% 30.04 in - SW 6.9 mph - N/A   Unknown
8:00 PM 45 °F - 21 °F 26% 30.04 in - SSW 4.6 mph - -  
8:00 PM 44.8 °F 42.4 °F 21.2 °F 39% 30.04 in - SSW 4.6 mph - N/A   Unknown
9:00 PM 42.8 °F 39.3 °F 22.3 °F 44% 30.03 in - South 5.8 mph - N/A   Unknown
10:00 PM 41.0 °F 37.1 °F 21.0 °F 45% 30.01 in - South 5.8 mph - N/A   Unknown
11:00 PM 40.3 °F 37.1 °F 20.8 °F 46% 30.00 in - South 4.6 mph - N/A   Unknown